Location: De Platvoet
(52.2667°N, 6.1667°E)
Time: 20:11:58
(UTC+00:00)

Cosmos 1953 Rocket - Pass Details

Date: 15 May 2026
Orbit: 597 x 628 km, 82.5° (Epoch: 8 June)

Event Time Altitude Azimuth Distance (km) Brightness Sun altitude
Rises 22:11:27 0° 344° (NNW) 2,885 8.8 -16.6°
Reaches altitude 10° 22:13:45 10° 337° (NNW) 1,970 7.5 -16.7°
Maximum altitude 22:17:51 42° 267° (W) 868 4.4 -16.9°
Enters shadow 22:20:10 22° 209° (SSW) 1,316 4.8 -17.0°
